Tracking 17844 objects as of 27-August-2016
HD Live streaming from Space Station
objects crossing your sky now

BEESAT

Track BEESAT now!
10-day predictions
BEESAT is classified as:


NORAD ID: 35933
Int'l Code: 2009-051C
Perigee: 708.2 km
Apogee: 718.3 km
Inclination: 98.5 °
Period: 98.9 minutes
Semi major axis: 7084 km
RCS: 0.033 m2 (small)
Launch date: September 23, 2009
Source: Germany (GER)
Launch site: SIRHARIKOTA (SRI)
Uplink (MHz):
Downlink (MHz): 436.000
Beacon (MHz): 436.000
Mode: 9600/4800bps GMSK
Call sign: DP0BEE
Status: Active


BEESAT is a a cubesat satellite built by student teams to test new attitude control systems.
Your satellite tracking list
Your tracking list is empty





NASA's NSSDC Master Catalog

Two Line Element Set (TLE):
1 35933U 09051C   16239.93954985 +.00000160 +00000-0 +47076-4 0  9996
2 35933 098.4600 009.0387 0007147 090.5152 269.6864 14.55996444367525
Source of the keplerian elements: Caltech

N2YO: 506